Fargo, ND

10:27 PM CDT on May 24, 2018 (GMT -0500)
Hector International

Weather History for KFAR - December, 2012

Change the Weather History Date:

Monday, December 31, 2012

  Actual Average Record
Temperature  
Mean Temperature 1 °F 10 °F  
Max Temperature 13 °F 19 °F 44 °F (1904)
Min Temperature -11 °F 2 °F -32 °F (1967)
Degree Days  
Heating Degree Days 64 55  
Month to date heating degree days 1551 1579  
Since 1 July heating degree days 3460 3540  
Cooling Degree Days 0 0  
Month to date cooling degree days 0 0  
Year to date cooling degree days 795 551  
Moisture  
Dew Point -7 °F    
Average Humidity 78    
Maximum Humidity 90    
Minimum Humidity 65    
Precipitation  
Precipitation T in 0.03 in 0.52 in (1951)
Month to date precipitation 0.37 0.83  
Year to date precipitation 14.52 22.61  
Snow  
Snow T in 0.40 in 5.20 in (1951)
Month to date snowfall 5.1 11.2  
Since 1 July snowfall 13.5 19.8  
Snow Depth 3.00 in    
Sea Level Pressure  
Sea Level Pressure 30.30 in    
Wind  
Wind Speed 5 mph (NNW)    
Max Wind Speed 20 mph    
Max Gust Speed 23 mph    
Visibility 9 miles    
Events Snow    
T = Trace of Precipitation, MM = Missing Value Source: NWS Daily Summary

Daily Weather History Graph

Daily Weather History Graph

Search for Another Location

Airport or City:

Astronomy

Dec. 31, 2012 Rise Set
Actual Time 8:12 AM CST 4:48 PM CST
Civil Twilight 7:37 AM CST 5:23 PM CST
Nautical Twilight 6:58 AM CST 6:02 PM CST
Astronomical Twilight 6:22 AM CST 6:39 PM CST
Moon 8:34 PM CST (12/31) 9:42 AM CST (12/31)
Length of Visible Light 9h 46m
Length of Day
8h 35m
Waning Gibbous, 90% of the Moon is Illuminated
Dec 31
Waning Gibbous
Jan 4
Last Quarter
Jan 11
New
Jan 18
First Quarter
Jan 26
Full

Hourly Weather History & Observations

Time (CST) Temp. Windchill Dew Point Humidity Pressure Visibility Wind Dir Wind Speed Gust Speed Precip Events Conditions
12:46 AM 10.4 °F -3.3 °F 5.0 °F 79% 30.13 in 2.0 mi NNE 10.4 mph - 0.00 in Snow Light Snow
12:53 AM 10.0 °F -5.9 °F 5.0 °F 80% 30.19 in 2.5 mi North 13.8 mph - 0.00 in Snow Light Snow
1:02 AM 10.4 °F -4.8 °F 3.2 °F 73% 30.13 in 5.0 mi North 12.7 mph - 0.00 in Snow Light Snow
1:30 AM 8.6 °F -7.0 °F 3.2 °F 79% 30.14 in 4.0 mi North 12.7 mph - 0.00 in   Haze
1:53 AM 7.0 °F -9.8 °F 1.0 °F 77% 30.21 in 10.0 mi North 13.8 mph - 0.00 in   Overcast
2:29 AM 3.2 °F -11.3 °F -2.2 °F 78% 30.18 in 10.0 mi NNE 9.2 mph - N/A   Scattered Clouds
2:53 AM 1.9 °F -10.6 °F -4.0 °F 76% 30.26 in 10.0 mi NNE 6.9 mph - N/A   Partly Cloudy
3:53 AM -2.9 °F -16.5 °F -9.0 °F 75% 30.29 in 10.0 mi North 6.9 mph - N/A   Clear
4:53 AM -5.1 °F -21.5 °F -9.9 °F 80% 30.31 in 10.0 mi North 9.2 mph - N/A   Clear
5:53 AM -5.1 °F -15.8 °F -9.9 °F 80% 30.32 in 10.0 mi NNW 4.6 mph - N/A   Clear
6:53 AM -7.1 °F -22.8 °F -11.9 °F 79% 30.32 in 10.0 mi NNW 8.1 mph - N/A   Clear
7:53 AM -9.0 °F -22.3 °F -14.1 °F 79% 30.33 in 10.0 mi NNW 5.8 mph - N/A   Clear
8:53 AM -7.1 °F -18.1 °F -13.0 °F 75% 30.32 in 10.0 mi North 4.6 mph - N/A   Clear
9:53 AM -4.0 °F -14.6 °F -9.9 °F 76% 30.34 in 10.0 mi NNW 4.6 mph - N/A   Clear
10:53 AM -0.9 °F -12.7 °F -9.0 °F 69% 30.37 in 10.0 mi NNW 5.8 mph - N/A   Clear
11:53 AM 1.9 °F - -7.1 °F 66% 30.36 in 10.0 mi Calm Calm - N/A   Clear
12:53 PM 3.0 °F - -6.0 °F 66% 30.34 in 10.0 mi Calm Calm - N/A   Clear
1:53 PM 3.0 °F -4.4 °F -6.0 °F 66% 30.33 in 10.0 mi WSW 3.5 mph - N/A   Clear
2:53 PM 3.9 °F - -6.0 °F 64% 30.34 in 10.0 mi Calm Calm - N/A   Clear
3:53 PM 1.9 °F - -7.1 °F 66% 30.34 in 10.0 mi Calm Calm - N/A   Clear
4:53 PM -0.0 °F - -7.1 °F 72% 30.35 in 10.0 mi Calm Calm - N/A   Clear
5:53 PM -5.1 °F - -11.0 °F 76% 30.35 in 10.0 mi Calm Calm - N/A   Clear
6:53 PM -7.1 °F - -9.9 °F 87% 30.35 in 10.0 mi Calm Calm - N/A   Clear
7:53 PM -4.0 °F - -9.9 °F 76% 30.36 in 10.0 mi Calm Calm - N/A   Clear
8:53 PM -5.1 °F -19.1 °F -9.9 °F 80% 30.35 in 10.0 mi South 6.9 mph - N/A   Clear
9:53 PM -7.1 °F -15.9 °F -13.0 °F 75% 30.35 in 9.0 mi SSW 3.5 mph - N/A   Clear
10:53 PM -8.0 °F -16.9 °F -14.1 °F 75% 30.35 in 9.0 mi South 3.5 mph - N/A   Clear
11:53 PM -7.1 °F -19.9 °F -11.9 °F 79% 30.33 in 9.0 mi South 5.8 mph - N/A   Clear